Weather History for Tinker AFB, OK

Change the Weather History Date:

Sunday, February 2, 2014

  Actual Average Record
Temperature  
Mean Temperature 25 °F -  
Max Temperature 30 °F 47 °F 75 °F (2003)
Min Temperature 18 °F 28 °F 3 °F (2011)
Degree Days  
Heating Degree Days 40    
Moisture  
Dew Point 19 °F    
Average Humidity 84    
Maximum Humidity 100    
Minimum Humidity 55    
Precipitation  
Precipitation 0.06 in - - ()
Snow  
Snow 0.00 in - - ()
Snow Depth 2.00 in    
Sea Level Pressure  
Sea Level Pressure 30.26 in    
Wind  
Wind Speed 15 mph (NNE)    
Max Wind Speed 25 mph    
Max Gust Speed 33 mph    
Visibility 5 miles    
Events Snow    
Averages and records for this station are not official NWS values.
T = Trace of Precipitation, MM = Missing Value Source: NWS Daily Summary

Daily Weather History Graph

Daily Weather History Graph

Search for Another Location

Airport:

Trip Planner

Search our weather history database for the weather conditions in past years. The results will help you decide how hot, cold, wet, or windy it might be!

Date:

Astronomy

Feb. 02, 2014 Rise Set
Actual Time 7:28 AM CST 5:58 PM CST
Civil Twilight 7:01 AM CST 6:25 PM CST
Nautical Twilight 6:31 AM CST 6:55 PM CST
Astronomical Twilight 6:01 AM CST 7:25 PM CST
Moon 9:04 AM CST (2/2) 9:34 PM CST (2/2)
Length of Visible Light 11h 23m
Length of Day
10h 30m
Waxing Crescent, 11% of the Moon is Illuminated
Feb 2
Waxing Crescent
Feb 6
First Quarter
Feb 14
Full
Feb 22
Last Quarter
Mar 1
New

Hourly Weather History & Observations

Time (CST) Temp. Windchill Dew Point Humidity Pressure Visibility Wind Dir Wind Speed Gust Speed Precip Events Conditions
12:58 AM 29.5 °F 18.0 °F 22.5 °F 75% 30.22 in 10.0 mi NNE 16.1 mph - N/A   Overcast
1:31 AM 28.4 °F 17.0 °F 23.0 °F 80% 30.16 in 10.0 mi NNE 15.0 mph - N/A   Mostly Cloudy
1:58 AM 29.1 °F 16.7 °F 22.3 °F 76% 30.21 in 10.0 mi NNE 18.4 mph - N/A   Mostly Cloudy
2:58 AM 28.8 °F 17.0 °F 22.1 °F 76% 30.17 in 10.0 mi North 16.1 mph - N/A   Overcast
3:58 AM 27.7 °F 14.8 °F 20.8 °F 75% 30.23 in 10.0 mi North 18.4 mph - N/A   Overcast
4:36 AM 26.6 °F 13.1 °F 19.4 °F 74% 30.19 in 10.0 mi North 19.6 mph - N/A   Mostly Cloudy
4:58 AM 27.0 °F 13.5 °F 19.2 °F 73% 30.23 in 10.0 mi North 19.6 mph 27.6 mph N/A   Overcast
5:58 AM 26.2 °F 13.8 °F 18.7 °F 73% 30.22 in 10.0 mi North 16.1 mph - N/A   Overcast
6:52 AM 24.8 °F 9.6 °F 17.6 °F 74% 30.14 in 10.0 mi North 23.0 mph 29.9 mph N/A   Clear
6:58 AM 25.5 °F 10.0 °F 16.9 °F 70% 30.18 in 10.0 mi North 25.3 mph 33.4 mph N/A   Overcast
7:01 AM 24.8 °F 10.3 °F 15.8 °F 69% 30.13 in 10.0 mi NNE 20.7 mph 33.4 mph N/A Snow Light Snow
7:26 AM 24.8 °F 10.0 °F 15.8 °F 69% 30.17 in 10.0 mi North 21.9 mph 31.1 mph N/A Snow Light Snow
7:44 AM 24.8 °F 11.9 °F 17.6 °F 74% 30.20 in 8.0 mi North 16.1 mph - N/A Snow Light Snow
7:49 AM 24.8 °F 11.9 °F 17.6 °F 74% 30.21 in 5.0 mi North 16.1 mph - N/A Snow Light Snow
7:58 AM 24.1 °F 11.0 °F 18.0 °F 77% 30.28 in 3.0 mi North 16.1 mph - 0.00 in Snow Light Snow
8:00 AM 23.0 °F 10.1 °F 19.4 °F 86% 30.22 in 2.0 mi North 15.0 mph - N/A Snow Light Snow
8:03 AM 23.0 °F 10.6 °F 19.4 °F 86% 30.22 in 1.8 mi North 13.8 mph - N/A Snow Light Snow
8:05 AM 23.0 °F 10.6 °F 19.4 °F 86% 30.22 in 1.5 mi North 13.8 mph - N/A Snow Light Snow
8:07 AM 23.0 °F 11.1 °F 19.4 °F 86% 30.22 in 1.2 mi North 12.7 mph - N/A Snow Light Snow
8:13 AM 23.0 °F 10.6 °F 19.4 °F 86% 30.22 in 1.0 mi North 13.8 mph - N/A Snow Light Snow
8:16 AM 23.0 °F 11.1 °F 19.4 °F 86% 30.23 in 1.0 mi North 12.7 mph 20.7 mph N/A Snow Light Snow
8:18 AM 23.0 °F 10.1 °F 19.4 °F 86% 30.24 in 1.0 mi North 15.0 mph 20.7 mph N/A Snow Light Snow
8:19 AM 23.0 °F 10.1 °F 19.4 °F 86% 30.24 in 0.8 mi North 15.0 mph 20.7 mph N/A Snow Light Snow
8:20 AM 23.0 °F 10.1 °F 19.4 °F 86% 30.24 in 0.8 mi North 15.0 mph 20.7 mph N/A Snow Light Snow
8:21 AM 23.0 °F 10.1 °F 19.4 °F 86% 30.24 in 0.8 mi North 15.0 mph - N/A Snow Light Snow
8:29 AM 23.0 °F 11.7 °F 19.4 °F 86% 30.25 in 0.8 mi North 11.5 mph - N/A Snow Light Snow
8:36 AM 21.2 °F 10.1 °F 21.2 °F 100% 30.25 in 0.8 mi North 10.4 mph - N/A Snow Light Snow
8:39 AM 21.2 °F 10.1 °F 21.2 °F 100% 30.26 in 0.8 mi North 10.4 mph - N/A Snow Light Snow
8:40 AM 21.2 °F 10.1 °F 21.2 °F 100% 30.25 in 1.0 mi North 10.4 mph - N/A Snow Light Snow
8:41 AM 21.2 °F 10.1 °F 21.2 °F 100% 30.25 in 1.0 mi North 10.4 mph - N/A Snow Light Snow
8:42 AM 21.2 °F 9.5 °F 21.2 °F 100% 30.25 in 1.0 mi North 11.5 mph - N/A Snow Light Snow
8:44 AM 21.2 °F 10.9 °F 21.2 °F 100% 30.26 in 1.2 mi North 9.2 mph - N/A Snow Light Snow
8:47 AM 21.2 °F 9.5 °F 21.2 °F 100% 30.26 in 1.5 mi NNE 11.5 mph - N/A Snow Light Snow
8:50 AM 21.2 °F 9.5 °F 21.2 °F 100% 30.27 in 1.8 mi NNE 11.5 mph - N/A Snow Light Snow
8:52 AM 21.2 °F 10.9 °F 21.2 °F 100% 30.27 in 2.0 mi NNE 9.2 mph - N/A Snow Light Snow
8:53 AM 21.2 °F 10.1 °F 21.2 °F 100% 30.27 in 2.0 mi NNE 10.4 mph - N/A Snow Light Snow
8:56 AM 21.2 °F 10.9 °F 21.2 °F 100% 30.27 in 2.5 mi NNE 9.2 mph - N/A Snow Light Snow
8:58 AM 22.1 °F 11.3 °F 20.3 °F 93% 30.34 in 2.5 mi NNE 10.4 mph - 0.02 in Snow Light Snow
9:04 AM 21.2 °F 10.1 °F 21.2 °F 100% 30.27 in 2.0 mi NNE 10.4 mph - N/A Snow Light Snow
9:07 AM 21.2 °F 7.8 °F 19.4 °F 93% 30.25 in 1.8 mi NNE 15.0 mph - N/A Snow Light Snow
9:09 AM 21.2 °F 8.9 °F 19.4 °F 93% 30.24 in 1.5 mi NNE 12.7 mph - N/A Snow Light Snow
9:14 AM 21.2 °F 8.3 °F 19.4 °F 93% 30.24 in 1.2 mi NNE 13.8 mph - N/A Snow Light Snow
9:29 AM 21.2 °F 8.9 °F 19.4 °F 93% 30.25 in 1.5 mi NNE 12.7 mph - N/A Snow Light Snow
9:35 AM 21.2 °F 7.3 °F 19.4 °F 93% 30.25 in 1.5 mi NNE 16.1 mph - N/A Snow Light Snow
9:39 AM 21.2 °F 7.3 °F 19.4 °F 93% 30.25 in 1.2 mi NNE 16.1 mph - N/A Snow Light Snow
9:46 AM 21.2 °F 8.9 °F 19.4 °F 93% 30.26 in 1.5 mi North 12.7 mph - N/A Snow Light Snow
9:50 AM 21.2 °F 7.3 °F 19.4 °F 93% 30.26 in 1.8 mi NNE 16.1 mph 20.7 mph N/A Snow Light Snow
9:51 AM 21.2 °F 7.3 °F 19.4 °F 93% 30.26 in 1.5 mi NNE 16.1 mph 20.7 mph N/A Snow Light Snow
9:54 AM 21.2 °F 7.3 °F 19.4 °F 93% 30.27 in 1.5 mi NNE 16.1 mph 20.7 mph N/A Snow Light Snow
9:57 AM 21.2 °F 9.5 °F 19.4 °F 93% 30.27 in 1.2 mi NNE 11.5 mph 20.7 mph N/A Snow Light Snow
9:58 AM 21.6 °F 10.6 °F 19.0 °F 90% 30.35 in 1.2 mi NNE 10.4 mph 20.7 mph 0.02 in Snow Light Snow
10:01 AM 21.2 °F 8.9 °F 19.4 °F 93% 30.27 in 1.5 mi North 12.7 mph - N/A Snow Light Snow
10:05 AM 21.2 °F 8.3 °F 19.4 °F 93% 30.26 in 1.8 mi North 13.8 mph - N/A Snow Light Snow
10:11 AM 21.2 °F 8.9 °F 19.4 °F 93% 30.28 in 2.0 mi North 12.7 mph - N/A Snow Light Snow
10:13 AM 21.2 °F 8.3 °F 19.4 °F 93% 30.28 in 2.0 mi NNE 13.8 mph - N/A Snow Light Snow
10:14 AM 21.2 °F 8.9 °F 19.4 °F 93% 30.28 in 2.5 mi NNE 12.7 mph - N/A Snow Light Snow
10:17 AM 21.2 °F 7.8 °F 19.4 °F 93% 30.27 in 3.0 mi North 15.0 mph - N/A Snow Light Snow
10:19 AM 21.2 °F 8.9 °F 19.4 °F 93% 30.28 in 3.0 mi NNE 12.7 mph - N/A Snow Light Snow
10:30 AM 21.2 °F 7.3 °F 17.6 °F 86% 30.29 in 3.0 mi North 16.1 mph - N/A Snow Light Snow
10:41 AM 21.2 °F 8.9 °F 19.4 °F 93% 30.29 in 2.5 mi North 12.7 mph - N/A Snow Light Snow
10:52 AM 21.2 °F 6.8 °F 19.4 °F 93% 30.29 in 3.0 mi North 17.3 mph - N/A Snow Light Snow
10:56 AM 21.2 °F 7.3 °F 19.4 °F 93% 30.28 in 2.5 mi North 16.1 mph - N/A Snow Light Snow
10:58 AM 21.6 °F 7.8 °F 18.9 °F 89% 30.35 in 2.5 mi North 16.1 mph - 0.01 in Snow Light Snow
11:11 AM 21.2 °F 7.8 °F 17.6 °F 86% 30.27 in 3.0 mi North 15.0 mph - N/A Snow Light Snow
11:34 AM 21.2 °F 6.8 °F 17.6 °F 86% 30.27 in 7.0 mi North 17.3 mph - N/A Snow Light Snow
11:43 AM 23.0 °F 11.7 °F 17.6 °F 80% 30.26 in 10.0 mi North 11.5 mph 20.7 mph N/A   Mostly Cloudy
11:58 AM 22.6 °F 9.6 °F 18.3 °F 83% 30.33 in 10.0 mi North 15.0 mph - 0.01 in   Mostly Cloudy
12:18 PM 23.0 °F 10.1 °F 19.4 °F 86% 30.25 in 9.0 mi North 15.0 mph 19.6 mph N/A   Mostly Cloudy
12:42 PM 23.0 °F 10.6 °F 17.6 °F 80% 30.26 in 10.0 mi North 13.8 mph - N/A   Light Freezing Rain
12:45 PM 23.0 °F 10.1 °F 19.4 °F 86% 30.25 in 10.0 mi North 15.0 mph - N/A   Overcast
12:58 PM 23.7 °F 9.7 °F 18.9 °F 82% 30.31 in 10.0 mi North 18.4 mph - 0.00 in   Overcast
1:58 PM 25.9 °F 12.5 °F 19.0 °F 75% 30.28 in 10.0 mi North 18.4 mph - N/A   Overcast
2:58 PM 28.0 °F 16.5 °F 18.9 °F 68% 30.27 in 10.0 mi North 15.0 mph - N/A   Overcast
3:42 PM 28.4 °F 17.0 °F 19.4 °F 69% 30.21 in 10.0 mi North 15.0 mph 19.6 mph N/A   Overcast
3:58 PM 29.5 °F 18.4 °F 18.9 °F 65% 30.27 in 10.0 mi NNE 15.0 mph - N/A   Overcast
4:58 PM 29.1 °F 20.6 °F 15.3 °F 56% 30.30 in 10.0 mi NNE 9.2 mph - N/A   Overcast
5:12 PM 30.2 °F 23.4 °F 15.8 °F 55% 30.23 in 10.0 mi NNE 6.9 mph - N/A   Overcast
5:58 PM 28.9 °F 21.1 °F 14.5 °F 55% 30.30 in 10.0 mi NNE 8.1 mph - N/A   Overcast
6:58 PM 26.1 °F 17.6 °F 13.3 °F 59% 30.31 in 10.0 mi NNE 8.1 mph - N/A   Clear
7:58 PM 25.2 °F 16.5 °F 12.2 °F 58% 30.32 in 10.0 mi NNE 8.1 mph - N/A   Clear
8:58 PM 23.9 °F 15.0 °F 11.1 °F 58% 30.33 in 10.0 mi NNE 8.1 mph - N/A   Clear
9:58 PM 23.0 °F 14.7 °F 11.5 °F 61% 30.35 in 10.0 mi NNE 6.9 mph - N/A   Clear
10:58 PM 20.8 °F 12.1 °F 11.7 °F 68% 30.34 in 10.0 mi NE 6.9 mph - N/A   Clear
11:58 PM 18.9 °F 10.8 °F 11.3 °F 72% 30.35 in 10.0 mi ENE 5.8 mph - N/A   Clear